Tracking 30264 objects as of 15-Feb-2025
HD Live streaming from Space Station
objects crossing your sky now

YAOGAN-35 03C

Track YAOGAN-35 03C now!
10-day predictions


NORAD ID: 53320
Int'l Code: 2022-088E
Perigee: 496.0 km
Apogee: 508.2 km
Inclination: 35.0 °
Period: 94.5 minutes
Semi major axis: 6873 km
RCS: Unknown
Launch date: July 29, 2022
Source: People's Republic of China (PRC)
Launch site: Xichang Space Center, China (XSC)
Your satellite tracking list
Your tracking list is empty




NASA's NSSDC Master Catalog

Two Line Element Set (TLE):
1 53320U 22088E   25046.39024231  .00029491  00000-0  11975-2 0  9994
2 53320  34.9948  19.9557 0008919 287.4094  72.5646 15.23613488142197
Source of the keplerian elements: AFSPC